TimeCDT,TemperatureF,Dew PointF,Humidity,Sea Level PressureIn,VisibilityMPH,Wind Direction,Wind SpeedMPH,Gust SpeedMPH,PrecipitationIn,Events,Conditions,WindDirDegrees,DateUTC
12:53 AM,51.1,46.9,86,30.01,10.0,East,5.8,-,N/A,,Clear,90,2013-09-24 05:53:00
1:53 AM,51.1,46.0,83,30.01,10.0,East,5.8,-,N/A,,Clear,90,2013-09-24 06:53:00
2:53 AM,50.0,46.0,86,30.02,10.0,East,5.8,-,N/A,,Clear,80,2013-09-24 07:53:00
3:53 AM,48.9,46.0,90,30.02,10.0,East,5.8,-,N/A,,Clear,80,2013-09-24 08:53:00
4:53 AM,48.0,46.0,93,30.02,10.0,East,5.8,-,N/A,,Clear,80,2013-09-24 09:53:00
5:53 AM,48.0,45.0,89,30.02,10.0,East,5.8,-,N/A,,Clear,80,2013-09-24 10:53:00
6:53 AM,46.9,45.0,93,30.03,10.0,East,6.9,-,N/A,,Clear,100,2013-09-24 11:53:00
7:53 AM,51.1,48.0,89,30.03,10.0,East,8.1,-,N/A,,Clear,90,2013-09-24 12:53:00
8:53 AM,57.0,51.1,81,30.02,10.0,East,10.4,-,N/A,,Clear,100,2013-09-24 13:53:00
9:53 AM,63.0,53.1,70,30.01,10.0,East,6.9,-,N/A,,Clear,100,2013-09-24 14:53:00
10:53 AM,69.1,54.0,58,29.98,10.0,East,9.2,-,N/A,,Clear,80,2013-09-24 15:53:00
11:53 AM,73.9,55.0,52,29.96,10.0,Variable,5.8,-,N/A,,Partly Cloudy,0,2013-09-24 16:53:00
12:53 PM,78.1,55.0,45,29.94,10.0,ESE,9.2,19.6,N/A,,Mostly Cloudy,120,2013-09-24 17:53:00
1:53 PM,77.0,55.0,47,29.93,10.0,South,6.9,-,N/A,,Mostly Cloudy,180,2013-09-24 18:53:00
2:53 PM,79.0,55.0,44,29.88,10.0,SE,8.1,-,N/A,,Partly Cloudy,130,2013-09-24 19:53:00
3:53 PM,77.0,54.0,45,29.89,10.0,SSE,6.9,-,N/A,,Scattered Clouds,160,2013-09-24 20:53:00
4:53 PM,77.0,55.0,47,29.88,10.0,SSE,6.9,-,N/A,,Mostly Cloudy,150,2013-09-24 21:53:00
5:53 PM,75.0,55.0,50,29.89,10.0,SE,6.9,-,0.00,,Scattered Clouds,140,2013-09-24 22:53:00
6:53 PM,68.0,55.9,65,29.88,10.0,SE,6.9,-,N/A,,Clear,140,2013-09-24 23:53:00
7:53 PM,64.9,55.9,73,29.89,10.0,ENE,5.8,-,N/A,,Clear,70,2013-09-25 00:53:00
8:53 PM,64.0,57.0,78,29.89,10.0,East,5.8,-,N/A,,Clear,80,2013-09-25 01:53:00
9:53 PM,63.0,57.0,81,29.89,10.0,East,5.8,-,N/A,,Clear,90,2013-09-25 02:53:00
10:53 PM,62.1,55.9,80,29.88,10.0,ENE,6.9,-,N/A,,Clear,70,2013-09-25 03:53:00
11:53 PM,60.1,54.0,80,29.88,10.0,ENE,5.8,-,N/A,,Clear,70,2013-09-25 04:53:00